Location: Newark
(10.6500°N, 71.6000°W)
Time: 14:39:30
(UTC+00:00)

OTV 5 (USA 277) - Visible Passes

Search period start: 16 October 2019 00:00
Search period end: 26 October 2019 00:00
Orbit: 310 x 324 km, 54.5° (Epoch: 08 October)

Date Brightness Start Highest point End Pass type
(mag) Time Alt. Az. Time Alt. Az. Time Alt. Az.
22 Oct ? 10:11:37 10° NNE 10:13:24 16° NE 10:15:11 10° E visible
22 Oct ? 23:10:10 10° S 23:12:24 23° ESE 23:12:52 22° ESE visible
23 Oct ? 23:24:12 10° SW 23:26:51 56° WNW 23:28:03 27° NNE visible
24 Oct ? 23:40:11 10° W 23:41:24 12° NW 23:42:37 10° NNW visible
25 Oct ? 09:22:02 27° NNE 09:22:47 33° NE 09:25:16 10° ESE visible
